Location: Les Chemineaux
(47.3024°N, 1.5104°E)
Time: 07:04:17
(UTC+00:00)

NOSS 3-1 (C) - Pass Details

Date: 19 May 2025
Orbit: 632 x 1571 km, 63.4° (Epoch: 17 June)

Event Time Altitude Azimuth Distance (km) Brightness Sun altitude
Rises 20:16:18 0° 184° (S) 2,943 5.7 -7.3°
Reaches altitude 10° 20:18:42 10° 172° (S) 2,087 4.8 -7.7°
Maximum altitude 20:22:40 28° 114° (ESE) 1,353 3.8 -8.2°
Drops below altitude 10° 20:27:12 10° 57° (ENE) 2,416 5.4 -8.7°
Sets 20:30:12 0° 46° (NE) 3,505 6.4 -9.1°
